Location: Olmeneta
(45.2333°N, 10.0167°E)
Time: 17:13:21
(UTC+00:00)

Cosmos 1633 Rocket - Pass Details

Date: 03 March 2021
Orbit: 606 x 624 km, 82.5° (Epoch: 11 April)

Event Time Altitude Azimuth Distance (km) Brightness Sun altitude
Rises 17:55:33 0° 189° (S) 2,889 6.6 -8.8°
Reaches altitude 10° 17:57:46 10° 189° (S) 1,989 5.8 -9.2°
Maximum altitude 18:02:11 84° 277° (W) 634 3.2 -10.0°
Drops below altitude 10° 18:06:39 10° 8° (N) 2,008 5.6 -10.8°
Sets 18:08:54 0° 9° (N) 2,919 6.5 -11.2°
